Tracking 19817 objects as of 18-Aug-2019
HD Live streaming from Space Station
objects crossing your sky now

COSMOS 2340

Track COSMOS 2340 now!
COSMOS 2340 is classified as:


NORAD ID: 24761
Int'l Code: 1997-015A
Perigee: 3,259.8 km
Apogee: 37,147.6 km
Inclination: 67.1 °
Period: 718.6 minutes
Semi major axis: 26574 km
RCS: 6.3095 m2 (large)
Launch date: April 9, 1997
Source: Commonwealth of Independent States (former USSR) (CIS)
Launch site: PLESETSK MISSILE AND SPACE COMPLEX (PKMTR)
aabbcc
Your satellite tracking list
Your tracking list is empty




NASA's NSSDC Master Catalog

Two Line Element Set (TLE):
1 24761U 97015A   19227.99283973 -.00000917 +00000-0 +00000-0 0  9991
2 24761 067.1035 004.4722 6375947 184.6061 164.2933 02.00400846163754
Source of the keplerian elements: AFSPC